Regional Weather Roundup
Issued by NWS

Home | Current Version | Previous Version | Text Only | Print | Product List | Glossary Off
Versions: 1 2 3 4 5 6 7 8 9 10 11 12 13 14 15 16 17 18 19 20 21 22 23 24 25 26 27 28 29 30 31 32 33 34 35 36 37 38 39 40 41 42 43 44 45 46 47 48 49 50

000
ASUS43 KDMX 171207
RWRIA

WEATHER ROUNDUP FOR IOWA
NATIONAL WEATHER SERVICE DES MOINES IA
700 AM CDT FRI APR 17 2015

NOTE: "FAIR" INDICATES FEW OR NO CLOUDS BELOW 12,000 FEET WITH NO
SIGNIFICANT WEATHER AND/OR OBSTRUCTIONS TO VISIBILITY.

* - THESE STATIONS ARE NOT NWS STATIONS...THUS NOT UNDER NWS
QUALITY CONTROL.  THEY ALSO DO NOT REPORT WEATHER SUCH
AS PRECIPITATION OR FOG.

IAZ001>003-012>014-020>022-031>034-043>046-171300-
   NORTHWEST IOWA

CITY           SKY/WX    TMP DP  RH WIND       PRES   REMARKS
CARROLL *      CLEAR     46  45  93 NW5       30.11S FOG
CHEROKEE *     PTCLDY    44  44 100 CALM      30.12F FOG
DENISON *      CLEAR     48  48 100 CALM      30.10R FOG
LE MARS *      CLEAR     46  45  93 CALM      30.14R FOG
ORANGE CITY *  CLEAR     50  43  76 NE9       30.12S
SHELDON *      CLEAR     46  43  87 NE8       30.12S
SIOUX CITY     MOCLDY    50  45  83 CALM      30.12S
6HR MIN TEMP:  48; 6HR MAX TEMP:  56;

SPENCER        PTCLDY    48  42  80 N9        30.14R
6HR MIN TEMP:  41; 6HR MAX TEMP:  48;

STORM LAKE *   CLEAR     52  46  82 N7        30.13S
$$

IAZ055>058-069>071-079>083-090>094-171300-
   SOUTHWEST IOWA

CITY           SKY/WX    TMP DP  RH WIND       PRES   REMARKS
ATLANTIC *     MOCLDY    48  48 100 NE3       30.11R
AUDUBON *      CLEAR     46  45  93 CALM      30.12R FOG
CLARINDA *     MOCLDY    50  50 100 N7        30.11S
COUNCIL BLFS * PTCLDY    52  52 100 N9        30.09S FOG
CRESTON *      CLEAR     54  52  94 NE7       30.11R
HARLAN  *      FOG       50  50 100 NE5       30.14R VSB 3/4
LAMONI         PTCLDY    54  50  86 NE3       30.10R
6HR MIN TEMP:  53; 6HR MAX TEMP:  62;

RED OAK *      CLEAR     50  50 100 NE6       30.10R
SHENANDOAH *   PTCLDY    50  50 100 NE7       30.09F
$$

IAZ047>049-059>061-072>074-084-171300-
   CENTRAL IOWA

CITY           SKY/WX    TMP DP  RH WIND       PRES   REMARKS
AMES           PTCLDY    47  44  90 N3        30.10R FOG
6HR MIN TEMP:  46; 6HR MAX TEMP:  55;

ANKENY *       CLEAR     48  48 100 CALM      30.10R
CHARITON *     CLOUDY    55  52  88 CALM      30.11R
DES MOINES     PTCLDY    55  49  80 CALM      30.10R
6HR MIN TEMP:  52; 6HR MAX TEMP:  61;

GRINNELL*      CLEAR     52  48  87 NW5       30.10S
KNOXVILLE *    MOCLDY    52  50  93 CALM      30.10R
MARSHALLTOWN   CLEAR     48  46  93 W3        30.09R
6HR MIN TEMP:  48; 6HR MAX TEMP:  57;

PELLA *        PTCLDY    51  51 100 CALM      30.12R FOG
PERRY *          N/A     46  45  93 NW6       30.10S FOG
$$

IAZ004>006-015-016-023>025-035-036-171300-
   NORTH CENTRAL IOWA

CITY           SKY/WX    TMP DP  RH WIND       PRES   REMARKS
ALGONA *       CLEAR     48  45  87 N6        30.12R
CLARION *      CLEAR     45  45 100 CALM      30.11R
ESTHERVILLE    PTCLDY    44  40  85 NW5       30.13R
6HR MIN TEMP:  44; 6HR MAX TEMP:  52;

FORT DODGE *   CLEAR     46  41  81 CALM      30.12R
MASON CITY     CLEAR     48  44  86 W9        30.12R
6HR MIN TEMP:  44; 6HR MAX TEMP:  51;

FOREST CITY *  CLEAR     41  41 100 CALM      30.11S FOG
IOWA FALLS *     N/A     48  45  87 W6        30.12R FOG
$$

IAZ007>011-017>019-026>030-037>042-050>054-066-171300-
   NORTHEAST IOWA

CITY           SKY/WX    TMP DP  RH WIND       PRES   REMARKS
CEDAR RAPIDS   CLEAR     50  48  93 NW5       30.09R
6HR MIN TEMP:  47; 6HR MAX TEMP:  56;

CHARLES CITY * CLEAR     48  46  93 CALM      30.11R
CLINTON *      CLEAR     45  39  81 NE5       30.12R
DECORAH *      CLEAR     50  45  81 W3        30.10R
DUBUQUE        PTCLDY    49  43  80 CALM      30.09R
6HR MIN TEMP:  47; 6HR MAX TEMP:  55;

MONTICELLO *   CLEAR     46  46 100 CALM      30.09R
OELWEIN *      CLEAR     52  46  82 N6        30.10R
WATERLOO       PTCLDY    47  44  90 CALM      30.10R
6HR MIN TEMP:  44; 6HR MAX TEMP:  53;

$$

IAZ064-065-067-068-078-171300-
   EAST CENTRAL IOWA

CITY           SKY/WX    TMP DP  RH WIND       PRES   REMARKS
DAVENPORT      CLEAR     50  42  74 NW5       30.10R
6HR MIN TEMP:  45; 6HR MAX TEMP:  56;

IOWA CITY      CLEAR     48  45  89 CALM      30.11R
6HR MIN TEMP:  46; 6HR MAX TEMP:  53;

MT. PLEASANT * CLOUDY    53  48  85 CALM      30.11R
MUSCATINE *    CLOUDY    50  48  93 CALM      30.10R
QUAD CITIES    CLEAR     46  42  86 CALM      30.09R
6HR MIN TEMP:  45; 6HR MAX TEMP:  52;

$$

IAZ062-063-075>077-085>089-095>099-171300-
   SOUTHEAST IOWA

CITY           SKY/WX    TMP DP  RH WIND       PRES   REMARKS
BURLINGTON     CLOUDY    54  50  86 CALM      30.10R
6HR MIN TEMP:  50; 6HR MAX TEMP:  58;

FAIRFIELD *    CLOUDY    52  48  87 NE5       30.11R
FORT MADISON * CLOUDY    55  52  88 CALM      30.11R
KEOKUK *       CLOUDY    55  52  88 CALM      30.09R
OSKALOOSA *    MOCLDY    48  46  92 CALM      30.12R FOG
CENTERVILLE *  PTCLDY    52  52 100 NW3       30.12R
OTTUMWA        CLOUDY    52  50  93 CALM      30.11R
6HR MIN TEMP:  48; 6HR MAX TEMP:  58;

WASHINGTON *   CLEAR     54  54 100 CALM      30.11R
$$

ABBREVIATIONS USED IN REMARKS
   TC - TEMPERATURES IN CELSIUS
  WCI - WIND CHILL INDEX
   HX - HEAT INDEX
  VSB - VISIBILITY
$$




USA.gov is the U.S. government's official web portal to all federal, state and local government web resources and services.